Notices

What's New in latest Release from April 7th, 2021:

- Updated Glossary, including Speed of Maximum Gust, and Total Hourly Precipitation

- Updated national and regional climate services offices contacts and prices information

- Addition of station inventory lists for 1981-2010, 1971-2000, and 1961-1990 Normals.

If you haven't already, please take our survey and provide feedback about our website: https://eccc.sondage-survey.ca/f/LanguageSelection.aspx?s=442ca660-fcf1-47c0-95a9-59707d6fd709

Hourly Data Report for October 24, 2019

PINAWA
MANITOBA
Current Station Operator: ECCC - MSC

50°10'38.020" N
96°03'53.000" W
268.00 m
503B1ER
71448
WEA

Download Data

Hourly Data (October 2019)
Hourly Data Report for October 24, 2019
TIME
LST
Temp Definition
°C
Dew Point Definition
°C
Rel Hum Definition
%
Precip. Amount Definition
mm

Wind Dir Definition
10's deg

Wind Spd Definition
km/h
Visibility Definition
km
Stn Press Definition
kPa
Hmdx Definition


Wind Chill Definition


Weather Definition


00:00 0.2 LegendMM LegendMM 0.0 31 10   98.90     LegendNANA
01:00 -0.9 LegendMM LegendMM 0.0 32 8   98.94   -4 LegendNANA
02:00 -1.2 LegendMM LegendMM 0.0 33 6   98.96   -3 LegendNANA
03:00 -2.5 LegendMM LegendMM 0.0 0 1   98.98   -3 LegendNANA
04:00 -2.8 LegendMM LegendMM 0.0 28 5   98.99   -5 LegendNANA
05:00 -2.9 LegendMM LegendMM 0.0 26 5   99.07   -5 LegendNANA
06:00 -3.1 LegendMM LegendMM 0.0 27 5   99.11   -5 LegendNANA
07:00 -3.3 LegendMM LegendMM 0.0 28 5   99.14   -5 LegendNANA
08:00 -3.1 LegendMM LegendMM 0.0 24 4   99.19   -5 LegendNANA
09:00 -1.8 LegendMM LegendMM 0.0 24 4   99.23   -3 LegendNANA
10:00 -0.4 LegendMM LegendMM 0.0 20 4   99.23   -2 LegendNANA
11:00 1.4 LegendMM LegendMM 0.0 26 4   99.22     LegendNANA
12:00 2.1 LegendMM LegendMM 0.0 28 10   99.18     LegendNANA
13:00 2.2 LegendMM LegendMM 0.0 26 5   99.14     LegendNANA
14:00 2.0 LegendMM LegendMM 0.0 27 6   99.10     LegendNANA
15:00 2.2 LegendMM LegendMM 0.0 26 7   99.09     LegendNANA
16:00 2.1 LegendMM LegendMM 0.0 24 6   99.05     LegendNANA
17:00 1.5 LegendMM LegendMM 0.0 25 4   99.03     LegendNANA
18:00 -1.7 LegendMM LegendMM 0.0 17 3   99.01   -3 LegendNANA
19:00 -2.5 LegendMM LegendMM 0.0 16 4   98.95   -4 LegendNANA
20:00 -1.0 LegendMM LegendMM 0.0 17 4   98.92   -2 LegendNANA
21:00 -0.9 LegendMM LegendMM 0.0 16 6   98.87   -3 LegendNANA
22:00 -1.3 LegendMM LegendMM 0.0 17 5   98.81   -3 LegendNANA
23:00 -0.4 LegendMM LegendMM 0.0 17 6   98.73   -2 LegendNANA

Notes on Data Quality.

Legend

  • E = Estimated
  • M = Missing
  • NA = Not Available*
  • [empty] = Indicates an unobserved value
Date modified: